Colby, KS

5:54 AM CDT on April 21, 2018 (GMT -0500)
Shaltz

Weather History for KCBK - October, 2013

Change the Weather History Date:

Monday, October 28, 2013

  Actual Average (KGLD) Record (KGLD)
Temperature  
Mean Temperature 44 °F -  
Max Temperature 51 °F 60 °F 86 °F (1943)
Min Temperature 37 °F 33 °F 10 °F (1925)
Degree Days  
Heating Degree Days 21    
Moisture  
Dew Point 38 °F    
Average Humidity 80    
Maximum Humidity 100    
Minimum Humidity 58    
Precipitation  
Precipitation 0.00 in - - ()
Sea Level Pressure  
Sea Level Pressure 29.97 in    
Wind  
Wind Speed 12 mph (NNE)    
Max Wind Speed 22 mph    
Max Gust Speed 29 mph    
Averages and records for this station are not official NWS values.
T = Trace of Precipitation, MM = Missing Value Source: NWS Daily Summary

Daily Weather History Graph

Daily Weather History Graph

Search for Another Location

Airport or City:

Astronomy

Oct. 28, 2013 Rise Set
Actual Time 8:08 AM CDT 6:47 PM CDT
Civil Twilight 7:40 AM CDT 7:14 PM CDT
Nautical Twilight 7:08 AM CDT 7:46 PM CDT
Astronomical Twilight 6:37 AM CDT 8:17 PM CDT
Moon 2:04 AM CDT (10/28) 3:28 PM CDT (10/28)
Length of Visible Light 11h 34m
Length of Day
10h 38m
Waning Crescent, 34% of the Moon is Illuminated
Oct 28
Waning Crescent
Nov 3
New
Nov 9
First Quarter
Nov 17
Full
Nov 25
Last Quarter

Hourly Weather History & Observations

Time (CDT) Temp. Windchill Dew Point Humidity Pressure Visibility Wind Dir Wind Speed Gust Speed Precip Events Conditions
12:15 AM 51.8 °F - 37.4 °F 58% 29.85 in - SSE 10.4 mph - N/A   Clear
12:35 AM 51.8 °F - 37.4 °F 58% 29.85 in - SSE 9.2 mph - N/A   Clear
12:55 AM 51.8 °F - 37.4 °F 58% 29.85 in - SSE 8.1 mph - N/A   Clear
1:15 AM 51.8 °F - 37.4 °F 58% 29.85 in - SSE 10.4 mph - N/A   Clear
1:55 AM 50.0 °F - 37.4 °F 62% 29.84 in - SSE 5.8 mph - N/A   Clear
2:15 AM 50.0 °F - 37.4 °F 62% 29.85 in - South 5.8 mph - N/A   Clear
2:35 AM 50.0 °F - 37.4 °F 62% 29.85 in - SSW 4.6 mph - N/A   Clear
2:55 AM 46.4 °F 44.3 °F 37.4 °F 71% 29.86 in - SSW 4.6 mph - N/A   Clear
3:15 AM 44.6 °F 43.1 °F 35.6 °F 71% 29.86 in - SSW 3.5 mph - N/A   Clear
3:35 AM 44.6 °F 42.2 °F 35.6 °F 71% 29.86 in - SSW 4.6 mph - N/A   Clear
3:55 AM 42.8 °F 40.1 °F 35.6 °F 76% 29.86 in - South 4.6 mph - N/A   Clear
4:15 AM 44.6 °F - 35.6 °F 71% 29.86 in - Calm Calm - N/A   Clear
4:35 AM 42.8 °F 37.5 °F 37.4 °F 81% 29.89 in - North 9.2 mph - N/A   Clear
4:55 AM 42.8 °F 37.0 °F 37.4 °F 81% 29.89 in - North 10.4 mph - N/A   Clear
5:15 AM 41.0 °F 35.2 °F 37.4 °F 87% 29.89 in - NE 9.2 mph - N/A   Unknown
5:35 AM 41.0 °F 35.2 °F 35.6 °F 81% 29.88 in - ENE 9.2 mph - N/A   Unknown
5:55 AM 41.0 °F 34.7 °F 37.4 °F 87% 29.89 in - ENE 10.4 mph - N/A   Unknown
6:15 AM 41.0 °F 34.7 °F 37.4 °F 87% 29.89 in - ENE 10.4 mph - N/A   Unknown
6:35 AM 42.8 °F 36.6 °F 37.4 °F 81% 29.91 in - ENE 11.5 mph - N/A   Clear
6:55 AM 41.0 °F 33.1 °F 35.6 °F 81% 29.92 in - NE 15.0 mph - N/A   Clear
7:15 AM 41.0 °F 32.8 °F 35.6 °F 81% 29.92 in - NE 16.1 mph - N/A   Clear
7:35 AM 41.0 °F 32.8 °F 35.6 °F 81% 29.93 in - NE 16.1 mph - N/A   Clear
7:55 AM 39.2 °F 30.5 °F 35.6 °F 87% 29.95 in - NE 16.1 mph - N/A   Unknown
8:15 AM 37.4 °F 28.2 °F 37.4 °F 100% 29.96 in - NE 16.1 mph - N/A   Unknown
8:35 AM 37.4 °F 28.2 °F 37.4 °F 100% 29.97 in - NE 16.1 mph - N/A   Unknown
8:55 AM 37.4 °F 27.2 °F 37.4 °F 100% 29.98 in - NE 19.6 mph 23.0 mph N/A   Unknown
9:15 AM 37.4 °F 27.5 °F 37.4 °F 100% 29.99 in - NE 18.4 mph 23.0 mph N/A   Unknown
9:35 AM 37.4 °F 27.2 °F 37.4 °F 100% 29.99 in - NE 19.6 mph - N/A   Unknown
9:55 AM 39.2 °F 30.2 °F 35.6 °F 87% 30.00 in - NE 17.3 mph 26.5 mph N/A   Unknown
10:15 AM 39.2 °F 29.3 °F 35.6 °F 87% 30.01 in - NE 20.7 mph 28.8 mph N/A   Mostly Cloudy
10:35 AM 41.0 °F 31.4 °F 35.6 °F 81% 30.00 in - NE 21.9 mph 28.8 mph N/A   Mostly Cloudy
10:55 AM 41.0 °F 31.4 °F 35.6 °F 81% 30.00 in - NE 21.9 mph 26.5 mph N/A   Mostly Cloudy
11:15 AM 41.0 °F 31.6 °F 35.6 °F 81% 30.00 in - NE 20.7 mph 26.5 mph N/A   Unknown
11:35 AM 42.8 °F 34.3 °F 37.4 °F 81% 30.02 in - NE 19.6 mph 24.2 mph N/A   Mostly Cloudy
11:55 AM 44.6 °F 36.6 °F 37.4 °F 76% 30.02 in - NE 19.6 mph 24.2 mph N/A   Mostly Cloudy
12:15 PM 44.6 °F 37.4 °F 37.4 °F 76% 30.03 in - NE 16.1 mph 23.0 mph N/A   Mostly Cloudy
12:35 PM 44.6 °F 37.4 °F 37.4 °F 76% 30.03 in - NNE 16.1 mph 20.7 mph N/A   Mostly Cloudy
12:55 PM 46.4 °F 40.1 °F 37.4 °F 71% 30.03 in - NE 15.0 mph - N/A   Scattered Clouds
1:15 PM 46.4 °F 39.8 °F 37.4 °F 71% 30.02 in - NE 16.1 mph 21.9 mph N/A   Scattered Clouds
1:35 PM 46.4 °F 40.4 °F 37.4 °F 71% 30.02 in - NNE 13.8 mph 19.6 mph N/A   Scattered Clouds
1:55 PM 46.4 °F 40.7 °F 37.4 °F 71% 30.02 in - North 12.7 mph - N/A   Mostly Cloudy
2:15 PM 46.4 °F 40.4 °F 37.4 °F 71% 30.02 in - North 13.8 mph - N/A   Overcast
2:35 PM 46.4 °F 40.1 °F 37.4 °F 71% 30.01 in - NE 15.0 mph - N/A   Overcast
2:55 PM 46.4 °F 41.1 °F 37.4 °F 71% 30.01 in - North 11.5 mph - N/A   Overcast
3:15 PM 46.4 °F 39.8 °F 37.4 °F 71% 30.00 in - North 16.1 mph - N/A   Overcast
3:35 PM 46.4 °F 40.1 °F 37.4 °F 71% 30.00 in - North 15.0 mph - N/A   Overcast
3:55 PM 44.6 °F 37.8 °F 37.4 °F 76% 30.00 in - North 15.0 mph - N/A   Overcast
4:15 PM 44.6 °F 38.4 °F 37.4 °F 76% 30.00 in - North 12.7 mph - N/A   Overcast
4:35 PM 46.4 °F 39.8 °F 37.4 °F 71% 30.01 in - North 16.1 mph - N/A   Overcast
4:55 PM 46.4 °F 40.4 °F 37.4 °F 71% 30.02 in - NNE 13.8 mph - N/A   Overcast
5:15 PM 46.4 °F 40.4 °F 37.4 °F 71% 30.01 in - North 13.8 mph - N/A   Overcast
5:35 PM 46.4 °F 41.1 °F 37.4 °F 71% 30.02 in - NNE 11.5 mph - N/A   Overcast
5:55 PM 44.6 °F 37.8 °F 37.4 °F 76% 30.02 in - North 15.0 mph - N/A   Overcast
6:15 PM 44.6 °F 37.8 °F 37.4 °F 76% 30.03 in - North 15.0 mph - N/A   Overcast
6:35 PM 44.6 °F 38.1 °F 37.4 °F 76% 30.02 in - North 13.8 mph 17.3 mph N/A   Overcast
6:55 PM 44.6 °F 37.8 °F 37.4 °F 76% 30.03 in - North 15.0 mph - N/A   Overcast
7:15 PM 44.6 °F 37.2 °F 37.4 °F 76% 30.03 in - North 17.3 mph 21.9 mph N/A   Overcast
7:35 PM 42.8 °F 35.8 °F 37.4 °F 81% 30.04 in - North 13.8 mph - N/A   Overcast
7:55 PM 42.8 °F 35.8 °F 37.4 °F 81% 30.04 in - NNE 13.8 mph - N/A   Overcast
8:15 PM - - - N/A% 30.05 in - North 16.1 mph - N/A   Unknown
8:35 PM 41.0 °F 32.8 °F 39.2 °F 93% 30.05 in - NNE 16.1 mph - N/A   Overcast
8:55 PM 41.0 °F 34.3 °F 41.0 °F 100% 30.05 in - North 11.5 mph - N/A   Overcast
9:15 PM 41.0 °F 34.3 °F 41.0 °F 100% 30.05 in - North 11.5 mph - N/A   Overcast
9:35 PM 41.0 °F 33.9 °F 41.0 °F 100% 30.05 in - NNE 12.7 mph - N/A   Overcast
9:55 PM 41.0 °F 33.5 °F 41.0 °F 100% 30.04 in - NNE 13.8 mph - N/A   Overcast
10:15 PM 41.0 °F 33.9 °F 41.0 °F 100% 30.04 in - North 12.7 mph - N/A   Overcast
10:35 PM 41.0 °F 33.9 °F 41.0 °F 100% 30.04 in - NNE 12.7 mph - N/A   Overcast
10:55 PM 41.0 °F 32.8 °F 41.0 °F 100% 30.04 in - NNE 16.1 mph - N/A   Overcast
11:15 PM 41.0 °F 33.5 °F 41.0 °F 100% 30.04 in - North 13.8 mph 17.3 mph N/A   Overcast
11:35 PM 41.0 °F 34.3 °F 41.0 °F 100% 30.04 in - North 11.5 mph 17.3 mph N/A   Overcast
11:55 PM 41.0 °F 32.5 °F 41.0 °F 100% 30.03 in - North 17.3 mph - N/A   Overcast